Weather in Karagach

Russia / Orenburg Oblast     51°14′47″N   56°24′59″E
temp.,
°C
wind,
m/s
gust,
m/s
humid.,
%
clouds,
%
prec.,
mm/h
press.,
hPa
HPBL,
m
27 november, sat
sat2723:00−8s410966 0.0 1034150
02:00−9s410925 0.0 1035146
05:00−9s410945 0.0 1035138
08:00−10s479152 0.0 103587
11:00−9s49856 0.0 1035148
14:00−7sse37823 0.0 1035180
17:00−11se33855 0.0 103426
20:00−13se33832 0.0 103433
28 november, sun
sun2823:00−15ese32875 0.0 103520
02:00−14se338823 0.0 103432
05:00−10ese358392 0.0 103264
08:00−11ese3286100 0.0 103131
11:00−5ese378284 0.0 1031205
14:00−4se3779100 0.0 1029218
17:00−6ese3585100 0.0 102868
20:00−6ese2386100 0.0 102854
29 november, mon
mon2923:00−7ese228789 0.0 102838
02:00−11se328864 0.0 102823
05:00−9ese2286100 0.0 102728
08:00−12ese2289100 0.0 102711
11:00−9se22855 0.0 102833
14:00−5se22815 0.0 102755
17:00−9se22875 0.0 102810
20:00−11se22865 0.0 102811
30 november, tue
tue3023:00−12se22855 0.0 102710
02:00−12se22835 0.0 102614
05:00−11ese3481100 0.0 102439
08:00−10se36787 0.0 102378
11:00−6se41075100 0.0 1021163
14:00−2sse61572100 0.0 1018346
17:00−2sse61470100 0.0 1016304
20:000sse71772100 0.0 1014358
1 december, wed
wed123:00+1s71878100 0.2 1012447
02:00+2s71676100 0.1 1010465
05:00+1sse61479100 0.1 1008366
08:00+1sse61480100 0.2 1007384
11:00+2se71578100 0.2 1004344
14:00+3se71584100 0.0 1001389
17:00+3sse8168299 0.0 998469
20:00+2s7168399 0.0 996445